User: anonymous   Login
Location: Caltech
(34.1382°N, 118.1253°W)
Time: 07:47:59
(UTC-08:00)
Language:

Cosmos 1125 Rocket - Orbit

View from above orbital plane
View from above orbital plane
View from above satellite
View from above satellite

Ground track
Ground track

The orbit data is extracted from the following two-line orbital elements,

1 11511U 79078B   14353.87431502  .00000327  00000-0  12031-3 0  9707
2 11511 074.0352 188.2176 0016742 293.6715 164.7268 14.36525759847907
Epoch (UTC): 19 December 2014 20:59:00
Eccentricity: 0.0016742
inclination: 74.0352°
perigee height: 758 km
apogee height: 782 km
right ascension of ascending node: 188.2176°
argument of perigee: 293.6715°
revolutions per day: 14.36525759
mean anomaly at epoch: 164.7268°
orbit number at epoch: 84790

The dashed part of the orbit path shows where the satellite is in the earth's shadow,  

DLR